This is the latest recevied weather packets stored in our database for station/object YB2YEN-13. If no packets are shown the sender has not sent any weather packets the latest 10 day(s).
| Time | Temp. | Humidity | Pressure | Rain* | Wind** | Luminosity | Snow |
|---|---|---|---|---|---|---|---|
| 1777701159 | 32.22° C | 88% | 977 hPa | - | - | 0 W/m² | - |
| 1777700837 | 31.67° C | 93% | 977 hPa | - | - | 0 W/m² | - |
| 1777700515 | 32.22° C | 90% | 977 hPa | - | - | 0 W/m² | - |
| 1777700193 | 31.67° C | 95% | 977 hPa | - | - | 0 W/m² | - |
| 1777699870 | 30.56° C | 98% | 977 hPa | - | - | 0 W/m² | - |
| 1777699548 | 30.56° C | 99% | 977 hPa | - | - | 0 W/m² | - |
| 1777699226 | 31.67° C | 98% | 977 hPa | - | - | 0 W/m² | - |
| 1777698904 | 31.67° C | 99% | 977 hPa | - | - | 0 W/m² | - |
| 1777698582 | 30.56° C | 99% | 977 hPa | - | - | 0 W/m² | - |
| 1777698260 | 30.56° C | 96% | 977 hPa | - | - | 0 W/m² | - |
| 1777697938 | 31.11° C | 99% | 977 hPa | - | - | 0 W/m² | - |
| 1777697616 | 30.56° C | 99% | 978 hPa | - | - | 0 W/m² | - |
| 1777697294 | 30.56° C | 99% | 978 hPa | - | - | 0 W/m² | - |
| 1777696972 | 30.56° C | 99% | 978 hPa | - | - | 0 W/m² | - |
| 1777696650 | 31.11° C | 94% | 978 hPa | - | - | 0 W/m² | - |
| 1777696329 | 31.11° C | 99% | 978 hPa | - | - | 0 W/m² | - |
| 1777696006 | 30.56° C | 95% | 978 hPa | - | - | 0 W/m² | - |
| 1777695684 | 31.11° C | 99% | 978 hPa | - | - | 0 W/m² | - |
| 1777695362 | 31.11° C | 96% | 978 hPa | - | - | 0 W/m² | - |
| 1777695040 | 30.56° C | 94% | 978 hPa | - | - | 0 W/m² | - |
| 1777694718 | 31.11° C | 90% | 978 hPa | - | - | 0 W/m² | - |
| 1777694396 | 31.11° C | 85% | 978 hPa | - | - | 0 W/m² | - |
| 1777694074 | 31.11° C | 88% | 978 hPa | - | - | 0 W/m² | - |
| 1777693752 | 31.67° C | 93% | 978 hPa | - | - | 0 W/m² | - |
| 1777693430 | 31.11° C | 94% | 978 hPa | - | - | 0 W/m² | - |
* Rain since midnight (hover to see other rain measurements)
** Current wind speed in m/s (hover to see current wind gust speed)